Regional Weather Roundup
Issued by NWS

Home | Current Version | Previous Version | Graphics & Text | Print | Product List | Glossary Off
Versions: 1 2 3 4 5 6 7 8 9 10 11 12 13 14 15 16 17 18 19 20 21 22 23 24 25 26 27 28 29 30 31 32 33 34 35 36 37 38 39 40 41 42 43 44 45 46 47 48 49 50

000
ASUS43 KTOP 011108
RWRKS

WEATHER ROUNDUP FOR KANSAS
NATIONAL WEATHER SERVICE GOODLAND KS
600 AM CDT FRI AUG 01 2014

NOTE:  "FAIR" INDICATES FEW OR NO CLOUDS BELOW 12,000 FEET WITH NO
SIGNIFICANT WEATHER AND/OR OBSTRUCTIONS TO VISIBILITY.

KSZ001>006-013>018-027>032-041>047-011200-
NORTHWEST KANSAS

CITY           SKY/WX    TMP DP  RH WIND       PRES   REMARKS
GOODLAND       CLEAR     55  52  89 N5        30.18S
HAYS           CLEAR     61  54  77 W8        30.06S
HILL CITY      CLEAR     59  53  80 W5        30.08R
RUSSELL        CLEAR     62  58  86 SW9       30.04S
$$

KSZ061>065-074>080-084>089-011200-
SOUTHWEST KANSAS

CITY           SKY/WX    TMP DP  RH WIND       PRES   REMARKS
DODGE CITY     MOCLDY    64  56  75 SW7       30.13S
ELKHART          N/A     61  53  75 W8          N/A
GARDEN CITY    CLEAR     57  55  93 W5        30.14R
GREAT BEND       N/A     63  55  77 SW9       30.06S
LIBERAL        CLEAR     61  54  77 W6        30.16S
PRATT          CLEAR     61  57  88 SW7       30.11S
$$

KSZ066>073-081>083-090>101-011200-
SOUTHEAST KANSAS

CITY           SKY/WX    TMP DP  RH WIND       PRES   REMARKS
CHANUTE        FOG       61  60  97 E3        30.09R VSB 1/4
COFFEYVILLE    CLOUDY    66  65  96 S3        30.07S
HUTCHINSON     CLEAR     63  57  81 S3        30.07F
MEDICINE LODGE   N/A     59  58  96 N3        30.09S
NEWTON         PTCLDY    64  57  77 SW8       30.10S
PARSONS        FOG       60  58  92 CALM      30.09R VSB 3/4
WICHITA INTL   PTCLDY    61  60  97 S6        30.07F
WICHITA JABRA  CLEAR     65  63  93 SW7       30.07F
WICHITA MCCONL CLEAR     63  63 100 S7        30.08S
WINFIELD       CLEAR     62  62 100 CALM      30.09S FOG
$$

KSZ007>012-019>026-033>040-048>060-102>105-011200-
NORTHEAST KANSAS

CITY           SKY/WX    TMP DP  RH WIND       PRES   REMARKS
CONCORDIA      CLEAR     61  56  83 CALM      30.02S
EMPORIA        MOCLDY    64  62  93 SW6       30.07S
LAWRENCE       MOCLDY    65  61  87 CALM      30.07S
MANHATTAN      MOCLDY    67  61  81 CALM      30.04S
MARYSVILLE     MOCLDY    68  59  73 S6        30.03S
OLATHE IND     CLOUDY    65  61  87 S5        30.08F
OLATHE EXE     CLOUDY    65  62  90 CALM      30.07F
SALINA         CLEAR     62  55  77 SE6       30.03F
TOPEKA BILLARD CLOUDY    66  64  93 CALM      30.07S
TOPEKA FORBES  PTCLDY    64  59  83 SE3       30.07F
$$



USA.gov is the U.S. government's official web portal to all federal, state and local government web resources and services.